Flag for Russia Weather past 2 weeks in Saratov, Russia

Now
66 °F

Partly cloudy.


Feels Like: 66 °F
Forecast: 63 / 78 °F
Wind: 8 mph from North

Location: Saratov / Tsentralny

Current Time: Jul 1, 2015 at 3:04:17 AM

Latest Report: Jul 1, 2015 at 2:30 AM


Visibility: N/A

Pressure: 29.86 "Hg

Humidity: 88%

Dew point: 63 °F

Location of SaratovLocation

Historic Weather in Saratov — Graph

°F

Saratov temperature yesterday

Maximum temperature yesterday: 81 °F (at 2:00 PM)
Minimum temperature yesterday: 64 °F (at 2:00 AM)
Average temperature yesterday: 72 °F

Past Weeks' High & Low Weather Summary

 TemperatureHumidityPressure
High99 °F (Jun 20, 1:00 PM)100% (Jun 29, 1:00 AM)30.01 "Hg (Jun 29, 1:00 AM)
Low64 °F (Jun 30, 2:00 AM)12% (Jun 16, 2:00 PM)29.59 "Hg (Jun 28, 2:00 AM)
Average80 °F49%29.79 "Hg
* Reported Jun 16 2:00 AM — Jul 1 2:00 AM, Saratov, Weather by CustomWeather, © 2015

Note: Actual official high and low records may vary slightly from our data, if they occured in-between our weather recording intervals... More about our weather records

Advertising

Saratov weather history for previous 24 hours

 ConditionsComfort  
Time TempWeatherWind HumidityBarometerVisibility
2:00 AM
Wed, Jul 1
66 °FPartly cloudy.8 mph88%29.86 "HgN/A
1:30 AM70 °FPartly cloudy.8 mph78%29.86 "HgN/A
1:00 AM70 °FPartly cloudy.6 mph78%29.86 "HgN/A
12:30 AM70 °FPartly cloudy.6 mph78%29.86 "HgN/A
12:00 AM70 °FPartly cloudy.8 mph78%29.86 "HgN/A
11:30 PM
Tue, Jun 30
72 °FPartly cloudy.3 mph78%29.86 "HgN/A
11:00 PM72 °FPartly cloudy.3 mph78%29.86 "HgN/A
10:30 PM73 °FPartly cloudy.1 mph74%29.86 "HgN/A
10:00 PM73 °FPartly cloudy.3 mph74%29.86 "HgN/A
9:30 PM75 °FPartly cloudy.3 mph61%29.86 "HgN/A
9:00 PM75 °FBroken clouds.6 mph61%29.86 "HgN/A
8:00 PM79 °FBroken clouds.6 mph58%29.86 "HgN/A
7:30 PM79 °FBroken clouds.6 mph58%29.86 "HgN/A
7:00 PM79 °FBroken clouds.6 mph58%29.86 "HgN/A
6:00 PM79 °FBroken clouds.6 mph58%29.86 "HgN/A
5:30 PM79 °FBroken clouds.6 mph58%29.86 "HgN/A
4:30 PM75 °FPartly sunny.6 mph65%29.86 "HgN/A
4:00 PM75 °FPartly sunny.10 mph65%29.86 "HgN/A
3:30 PM79 °FPartly sunny.10 mph54%29.86 "HgN/A
3:00 PM79 °FPartly sunny.10 mph54%29.86 "HgN/A
2:30 PM81 °FPartly sunny.10 mph54%29.86 "HgN/A
2:00 PM81 °FPartly sunny.10 mph54%29.86 "HgN/A
1:30 PM79 °FPartly sunny.10 mph54%29.86 "HgN/A
1:00 PM79 °FPartly sunny.10 mph54%29.86 "HgN/A
12:30 PM77 °FPartly sunny.8 mph65%29.86 "HgN/A
12:00 PM77 °FPartly sunny.13 mph65%29.86 "HgN/A
11:30 AM77 °FPartly sunny.8 mph61%29.83 "HgN/A
11:00 AM77 °FSprinkles. Partly sunny.10 mph61%29.83 "HgN/A
10:30 AM73 °FPartly sunny.6 mph78%29.86 "HgN/A
10:00 AM73 °FPartly sunny.6 mph78%29.86 "HgN/A
9:30 AM72 °FPartly sunny.8 mph78%29.86 "HgN/A
9:00 AM72 °FPartly sunny.8 mph78%29.86 "HgN/A
8:30 AM72 °FPartly sunny.1 mph78%29.83 "HgN/A
8:00 AM72 °FBroken clouds.10 mph78%29.83 "HgN/A
7:30 AM68 °FBroken clouds.1 mph83%29.83 "HgN/A
7:00 AM68 °FBroken clouds.1 mph83%29.83 "HgN/A
6:30 AM66 °FPartly sunny.6 mph83%29.83 "HgN/A
6:00 AM66 °FPartly sunny.8 mph83%29.83 "HgN/A
5:30 AM64 °FPartly sunny.3 mph83%29.83 "HgN/A
5:00 AM64 °FPartly sunny.6 mph83%29.83 "HgN/A
4:30 AM64 °FPartly cloudy.10 mph94%29.83 "HgN/A
4:00 AM64 °FPartly cloudy.6 mph94%29.83 "HgN/A
3:30 AM64 °FPartly cloudy.8 mph88%29.83 "HgN/A
3:00 AM64 °FPartly cloudy.8 mph88%29.83 "HgN/A
Weather by CustomWeather, © 2015

See weather overviewHow to use our weather pages